LINGQUE 1A (43942 NORAD) Tracking and Keplerian Element Data

This shows tracking and keplerian element data for the satellite.

Feedback or suggestion? Click here.




ElementValue
Catalog43942
NameLINGQUE 1A
Epoch Orbit453
Epoch Day51.19515311
Epoch Year2019
RAAN149.8259
Inclination97.5087
Eccentricity0.0017975
Argument of Perigee190.3763
Mean Anonmoly257.0024
Mean Motion15.12795229
Decay Rate1.97E-05
L11 43942U 19005A 19051.19515311 .00001970 00000-0 11557-3 0 9998
L22 43942 97.5087 149.8259 0017975 190.3763 257.0024 15.12795229 4531

Live tracking and technical data element details for LINGQUE 1A (NORAD 43942). LINGQUE 1A can be tracked NOW for your location showing map with azimuth and elevation plus other details from your city location.

Track the satellite on the map from your city or location and see movement details for azimuth, elevation, latitude, longitude, range, height, and movement on the map or in text.







IsCatalogInMostPopularTable: catalog: 43942, numindb: 17
Update: records affected: 1



GetName: 43942 LINGQUE 1A

Hit Count: updated at: Thu, 21 Feb 2019 11:28:16 GMT